Location: ??????
(55.2000°N, 38.3000°E)
Time: 18:15:21
(UTC+00:00)

Cosmos 2297 - Pass Details

Date: 15 November 2025
Orbit: 836 x 856 km, 71.0° (Epoch: 14 December)

Event Time Altitude Azimuth Distance (km) Brightness Sun altitude
Exits shadow 03:35:52 13° 311° (NW) 2,292 5.4 -11.7°
Maximum altitude 03:40:18 33° 252° (WSW) 1,388 4.4 -11.1°
Drops below altitude 10° 03:45:14 10° 191° (S) 2,447 6.2 -10.4°
Sets 03:47:52 0° 182° (S) 3,375 7.1 -10.1°
